Volver al catálogo

STARLINK-37443

ActivoComunicacionesSSO
NORAD 68824·PAYLOAD·🇺🇸 United States

Lanzado Apr 23, 2026 desde Vandenberg Space Force Base

Loading…

Próximos Pases (próximas 24 horas)

TLE

ActualizadoSource: CelesTrak SupGP

Época: Sep 14, 2026, 21:30 UTC

1 68824C 26089Y   26257.89631944  .00068549  00000+0  21290-2 0  2573
2 68824  97.2848 103.7993 0001829  93.3823 284.1665 15.33387617    15

Sigue STARLINK-37443 en tiempo real con AllMySat

Download on the App Store